Regional Weather Roundup
Issued by NWS Sioux Falls, SD

Home | Current Version | Previous Version | Graphics & Text | Print | Product List | Glossary On
Versions: 1 2 3 4 5 6 7 8 9 10 11 12 13 14 15 16 17 18 19 20 21 22 23 24 25 26 27 28 29 30 31 32 33 34 35 36 37 38 39 40 41 42 43 44 45 46 47 48 49 50
000
ASUS43 KFSD 251102
RWRFSD

WEATHER ROUNDUP FOR SE SOUTH DAKOTA/SW MINNESOTA/NW IOWA
NATIONAL WEATHER SERVICE SIOUX FALLS SD
600 AM CDT MON JUL 25 2016

NOTE: "FAIR" INDICATES FEW OR NO CLOUDS BELOW 12,000 FEET WITH NO
SIGNIFICANT WEATHER AND OR OBSTRUCTIONS TO VISIBILITY.


SDZ038>040-050-052>070-251200-
SOUTHEAST SOUTH DAKOTA

CITY           SKY/WX    TMP DP  RH WIND       PRES   REMARKS
BROOKINGS      CLEAR     60  58  92 SW3       30.09R
CHAMBERLAIN    CLEAR     60  59  95 CALM      30.09R
HURON          CLEAR     60  58  92 SE3       30.06R
MADISON        FAIR      61  57  88 W3        30.09S
MITCHELL       CLEAR     61  59  93 CALM      30.08R
SIOUX FALLS    PTCLDY    59  57  93 CALM      30.09R
WINNER         FAIR      66  53  63 SW6       30.10R
YANKTON        CLEAR     59  55  88 CALM      30.09R
$$

MNZ071-072-080-081-089-090-097-098-251200-
SOUTHWEST MINNESOTA

CITY           SKY/WX    TMP DP  RH WIND       PRES   REMARKS
FAIRMONT       CLEAR     61  54  77 CALM      30.06R
JACKSON        CLEAR     61  57  88 CALM      30.09R
LUVERNE        CLEAR     55  54  94 CALM      30.10R
MARSHALL       CLEAR     62  58  86 SW6       30.07R
MONTEVIDEO     CLEAR     63  57  82 NW5       30.06R
REDWOOD FALLS  CLEAR     63  58  83 W3        30.05R
TRACY          CLEAR     67  60  77 W6        30.08R
WINDOM         CLEAR     61  59  94 CALM      30.09R
WORTHINGTON    CLEAR     59  58  96 SW6       30.10R
$$

IAZ001>003-012>014-020>022-031-032-NEZ013-014-SDZ071-251200-
NORTHWEST IOWA

CITY           SKY/WX    TMP DP  RH WIND       PRES   REMARKS
CHEROKEE       CLEAR     59  59 100 CALM      30.11R
ESTHERVILLE    CLEAR     59  59 100 W3        30.08R
LE MARS        CLEAR     59  59 100 CALM      30.11R
SHELDON        FOG       55  55 100 CALM      30.09R VSB<1/4
SIOUX CITY     CLEAR     63  60  90 CALM      30.11R
SPENCER        CLEAR     57  55  93 SW5       30.10R FOG
STORM LAKE     CLEAR     63  61  94 NW5       30.11R
$$

ABBREVIATIONS USED IN REMARKS
   TC - TEMPERATURE IN CELSIUS
  WCI - WIND CHILL INDEX
   HX - HEAT INDEX
  VSB - VISIBILITY





USA.gov is the U.S. government's official web portal to all federal, state and local government web resources and services.